Weather in Omsk

Russia / Omsk Oblast     54˚59′21″N   73˚22′05″E
temp.,
°C
wind,
m/s
gust,
m/s
humid.,
%
clouds,
%
prec.,
mm/h
press.,
hPa
HPBL,
m
16 january, sat
sat1600:00−18˚sse61388100 0.0 1033351
03:00−17˚sse71290100 0.1 1029328
06:00−15˚sse61188100 0.2 1026338
09:00−13˚s61282100 0.0 1023326
12:00−11˚s51181100 0.0 1021348
15:00−9˚s61082100 0.0 1017325
18:00−11˚sse51084100 0.0 1014262
21:00−11˚sse61383100 0.0 1010282
17 january, sun
sun1700:00−10˚s51186100 0.0 1007335
03:00−10˚sw51090100 0.0 1004300
06:00−10˚wsw51294100 0.1 1005419
09:00−9˚wsw61592100 0.1 1006445
12:00−8˚wsw71492100 0.1 1008483
15:00−9˚sw6138876 0.0 1008398
18:00−7˚sw7178171 0.0 1008793
21:00−8˚sw8168762 0.0 1006811
18 january, mon
mon1800:00−9˚wsw9159081 0.2 10071197
03:00−12˚wsw71489100 0.0 1009675
06:00−15˚wsw6139089 0.0 1011403
09:00−18˚w511932 0.0 1014256
12:00−18˚w49943 0.0 1016268
15:00−18˚w369556 0.0 1018240
18:00−22˚w239729 0.0 101920
21:00−23˚wsw229717 0.0 102020
19 january, tue
tue1900:00−24˚sw229719 0.0 102020
03:00−24˚ssw239686 0.0 101920
06:00−25˚wsw229543 0.0 101920
09:00−25˚wsw229567 0.0 101920
12:00−22˚w239436 0.0 1020102
15:00−20˚w239460 0.0 1020137
18:00−22˚nnw229358 0.0 102020
21:00−23˚ne239493 0.0 102037
20 january, wed
wed2000:00−22˚ene369497 0.0 1021179
03:00−22˚ene4894100 0.0 1020248
06:00−22˚ene51094100 0.0 1019288
09:00−22˚ene51092100 0.0 1019363
12:00−21˚ene5998100 0.4 1018379
15:00−21˚ene5897100 1.1 1017401
18:00−23˚ne3698100 1.5 1018314
21:00−24˚nne4796100 0.1 1020304